Miscellaneous Local Product
Issued by NWS Hastings, NE

Home | Current Version | Previous Version | Graphics & Text | Print | Product List | Glossary On
Versions: 1 2 3 4 5 6 7 8 9 10 11 12 13 14 15 16 17 18 19 20 21 22 23 24 25 26 27 28 29 30 31 32 33 34 35 36 37 38 39 40 41 42 43 44 45 46 47 48 49 50
000
AXUS43 KGID 281102
MISGRI

GID CWA HOURLY WEATHER ROUNDUP
NATIONAL WEATHER SERVICE HASTINGS NE
500 AM CST SUN DEC 28 2014

NOTE: "FAIR" INDICATES FEW OR NO CLOUDS BELOW 12,000 FEET WITH NO
SIGNIFICANT WEATHER AND/OR OBSTRUCTIONS TO VISIBILITY.

...SOUTH CENTRAL NEBRASKA...

CITY           SKY/WX    TMP DP  RH WIND       PRES   REMARKS
GRAND ISLAND     N/A     13   7  77 W10       30.11F WCI   0
HASTINGS       CLEAR     13   8  81 W7        30.09F WCI   3
KEARNEY        CLEAR     10   3  72 SW8       30.09F WCI  -1
ORD            PTCLDY     7   4  87 W5        30.07F WCI  -2
YORK           CLEAR     10   7  85 W7        30.11F WCI   0
AURORA         CLEAR     11   7  83 NW3       30.10F
LEXINGTON      PTCLDY     2  -1  85 W6        30.08F WCI  -9
HOLDREGE       PTCLDY    12   6  77 CALM      30.08F
HEBRON         CLEAR     15  11  83 CALM      30.15F

...NEBRASKA PANHANDLE...

CITY           SKY/WX    TMP DP  RH WIND       PRES   REMARKS
CHADRON        PTCLDY     4  -1  80 W10       29.99F WCI -11
ALLIANCE       PTCLDY    -5  -8  87 E3        29.97F
SCOTTSBLUFF    PTCLDY    -1  -5  82 E3        29.98F
SIDNEY         PTCLDY    -3  -8  79 W7        29.98F WCI -16

...WESTERN AND NORTH CENTRAL NEBRASKA...

CITY           SKY/WX    TMP DP  RH WIND       PRES   REMARKS
VALENTINE      PTCLDY     1  -3  83 W6        30.03F WCI -10
AINSWORTH      PTCLDY     6   2  82 W6        30.03F WCI  -4
ONEILL         PTCLDY     8   4  84 W8        30.07S WCI  -4
BROKEN BOW     PTCLDY     8   1  73 CALM      30.05F
IMPERIAL       PTCLDY     3  -3  76 W5        30.06F WCI  -6
NORTH PLATTE   PTCLDY    -2  -6  83 NW3       30.07F
MCCOOK         PTCLDY     5   1  83 W9        30.09F WCI  -9

...EASTERN NEBRASKA...

CITY           SKY/WX    TMP DP  RH WIND       PRES   REMARKS
NORFOLK        PTCLDY     7   4  87 W3        30.09S
SO SIOUX CITY  PTCLDY     6   2  83 E3        30.13S
TEKAMAH        CLEAR     12   8  84 S6        30.13F WCI   3
COLUMBUS       CLEAR     10   1  67 W6        30.12F WCI   1
ALBION         PTCLDY     7   1  79 W5        30.09F WCI  -2
OMAHA EPPLEY   CLEAR     17  13  84 SE7       30.16F WCI   8
OFFUTT AFB     CLEAR     15  11  86 S3        30.14F
MILLARD        CLEAR     18  14  84 CALM      30.15F
LINCOLN        CLEAR     18  12  77 SW6       30.16F WCI  10
NEBRASKA CITY  CLEAR     18  13  82 SW9       30.15F WCI   6
BEATRICE       CLEAR     14  11  89 S6        30.16F WCI   5
FALLS CITY     CLEAR     17  12  80 S5        30.18F WCI  10

...NORTHERN KANSAS...

CITY           SKY/WX    TMP DP  RH WIND       PRES   REMARKS
GOODLAND       CLEAR     15   9  76 SW12      30.04F WCI   2
HILL CITY      PTCLDY    11   6  81 W5        30.13F WCI   3
NORTON         SUNNY      3  -2  78 SW6       30.11S WCI  -8
PHILLIPSBURG   CLEAR     10   7  85 W6        30.15F WCI   1
BELOIT         CLEAR     14  12  92 S3        30.17F
HAYS           CLEAR     12   1  62 W5        30.14F WCI   4
RUSSELL        CLEAR     14  11  87 S7        30.15F WCI   4
CONCORDIA      CLEAR     19  15  84 W8        30.16F WCI   9
SALINA         CLEAR     17  13  84 CALM      30.21F
TOPEKA         CLEAR     18  12  77 CALM      30.23F



USA.gov is the U.S. government's official web portal to all federal, state and local government web resources and services.